Year,Month,Day,Hour,Minute,Value (Times are PST for temperature in C)
2015,05,28,00,00,11.60
2015,05,28,00,01,11.70
2015,05,28,00,02,11.70
2015,05,28,00,03,11.70
2015,05,28,00,04,11.70
2015,05,28,00,05,11.70
2015,05,28,00,06,11.70
2015,05,28,00,07,11.70
2015,05,28,00,08,11.70
2015,05,28,00,09,11.70
2015,05,28,00,10,11.70
2015,05,28,00,11,11.70
2015,05,28,00,12,11.70
2015,05,28,00,13,11.70
2015,05,28,00,14,11.70
2015,05,28,00,15,11.70
2015,05,28,00,16,11.70
2015,05,28,00,17,11.80
2015,05,28,00,18,11.80
2015,05,28,00,19,11.80
2015,05,28,00,20,11.80
2015,05,28,00,21,11.80
2015,05,28,00,22,11.80
2015,05,28,00,23,11.80
2015,05,28,00,24,11.80
2015,05,28,00,25,11.80
2015,05,28,00,26,11.80
2015,05,28,00,27,11.80
2015,05,28,00,28,11.90
2015,05,28,00,29,11.90
2015,05,28,00,30,11.90
2015,05,28,00,31,11.90
2015,05,28,00,32,11.90
2015,05,28,00,33,11.90
2015,05,28,00,34,11.90
2015,05,28,00,35,11.90
2015,05,28,00,36,11.80
2015,05,28,00,37,11.80
2015,05,28,00,38,11.80
2015,05,28,00,39,11.80
2015,05,28,00,40,11.80
2015,05,28,00,41,11.70
2015,05,28,00,42,11.70
2015,05,28,00,43,11.70
2015,05,28,00,44,11.70
2015,05,28,00,45,11.70
2015,05,28,00,46,11.70
2015,05,28,00,47,11.60
2015,05,28,00,48,11.60
2015,05,28,00,49,11.60
2015,05,28,00,50,11.60
2015,05,28,00,51,11.60
2015,05,28,00,52,11.60
2015,05,28,00,53,11.60
2015,05,28,00,54,11.60
2015,05,28,00,55,11.60
2015,05,28,00,56,11.60
2015,05,28,00,57,11.60
2015,05,28,00,58,11.60
2015,05,28,00,59,11.60
2015,05,28,01,00,11.60
2015,05,28,01,01,11.60
2015,05,28,01,02,11.60
2015,05,28,01,03,11.60
2015,05,28,01,04,11.60
2015,05,28,01,05,11.60
2015,05,28,01,06,11.60
2015,05,28,01,07,11.60
2015,05,28,01,08,11.50
2015,05,28,01,09,11.40
2015,05,28,01,10,11.40
2015,05,28,01,11,11.40
2015,05,28,01,12,11.40
2015,05,28,01,13,11.40
2015,05,28,01,14,11.30
2015,05,28,01,15,11.30
2015,05,28,01,16,11.30
2015,05,28,01,17,11.30
2015,05,28,01,18,11.30
2015,05,28,01,19,11.30
2015,05,28,01,20,11.20
2015,05,28,01,21,11.20
2015,05,28,01,22,11.20
2015,05,28,01,23,11.20
2015,05,28,01,24,11.20
2015,05,28,01,25,11.20
2015,05,28,01,26,11.20
2015,05,28,01,27,11.20
2015,05,28,01,28,11.20
2015,05,28,01,29,11.20
2015,05,28,01,30,11.20
2015,05,28,01,31,11.20
2015,05,28,01,32,11.20
2015,05,28,01,33,11.20
2015,05,28,01,34,11.30
2015,05,28,01,35,11.30
2015,05,28,01,36,11.30
2015,05,28,01,37,11.30
2015,05,28,01,38,11.30
2015,05,28,01,39,11.30
2015,05,28,01,40,11.30
2015,05,28,01,41,11.30
2015,05,28,01,42,11.30
2015,05,28,01,43,11.30
2015,05,28,01,44,11.30
2015,05,28,01,45,11.30
2015,05,28,01,46,11.30
2015,05,28,01,47,11.20
2015,05,28,01,48,11.20
2015,05,28,01,49,11.20
2015,05,28,01,50,11.10
2015,05,28,01,51,11.10
2015,05,28,01,52,11.10
2015,05,28,01,53,11.00
2015,05,28,01,54,10.90
2015,05,28,01,55,10.90
2015,05,28,01,56,10.90
2015,05,28,01,57,10.90
2015,05,28,01,58,10.90
2015,05,28,01,59,10.90
2015,05,28,02,00,10.90
2015,05,28,02,01,10.90
2015,05,28,02,02,10.90
2015,05,28,02,03,10.80
2015,05,28,02,04,10.80
2015,05,28,02,05,10.80
2015,05,28,02,06,10.80
2015,05,28,02,07,10.80
2015,05,28,02,08,10.70
2015,05,28,02,09,10.70
2015,05,28,02,10,10.70
2015,05,28,02,11,10.70
2015,05,28,02,12,10.70
2015,05,28,02,13,10.70
2015,05,28,02,14,10.70
2015,05,28,02,15,10.60
2015,05,28,02,16,10.60
2015,05,28,02,17,10.60
2015,05,28,02,18,10.60
2015,05,28,02,19,10.60
2015,05,28,02,20,10.60
2015,05,28,02,21,10.60
2015,05,28,02,22,10.60
2015,05,28,02,23,10.60
2015,05,28,02,24,10.60
2015,05,28,02,25,10.60
2015,05,28,02,26,10.60
2015,05,28,02,27,10.60
2015,05,28,02,28,10.60
2015,05,28,02,29,10.60
2015,05,28,02,30,10.60
2015,05,28,02,31,10.60
2015,05,28,02,32,10.60
2015,05,28,02,33,10.60
2015,05,28,02,34,10.60
2015,05,28,02,35,10.70
2015,05,28,02,36,10.70
2015,05,28,02,37,10.70
2015,05,28,02,38,10.70
2015,05,28,02,39,10.70
2015,05,28,02,40,10.70
2015,05,28,02,41,10.70
2015,05,28,02,42,10.70
2015,05,28,02,43,10.70
2015,05,28,02,44,10.70
2015,05,28,02,45,10.70
2015,05,28,02,46,10.70
2015,05,28,02,47,10.70
2015,05,28,02,48,10.70
2015,05,28,02,49,10.60
2015,05,28,02,50,10.60
2015,05,28,02,51,10.60
2015,05,28,02,52,10.60
2015,05,28,02,53,10.60
2015,05,28,02,54,10.60
2015,05,28,02,55,10.60
2015,05,28,02,56,10.60
2015,05,28,02,57,10.50
2015,05,28,02,58,10.40
2015,05,28,02,59,10.40
2015,05,28,03,00,10.40
2015,05,28,03,01,10.40
2015,05,28,03,02,10.40
2015,05,28,03,03,10.30
2015,05,28,03,04,10.30
2015,05,28,03,05,10.20
2015,05,28,03,06,10.20
2015,05,28,03,07,10.20
2015,05,28,03,08,10.10
2015,05,28,03,09,10.10
2015,05,28,03,10,10.10
2015,05,28,03,11,10.10
2015,05,28,03,12,10.10
2015,05,28,03,13,10.10
2015,05,28,03,14,10.10
2015,05,28,03,15,10.10
2015,05,28,03,16,10.10
2015,05,28,03,17,10.10
2015,05,28,03,18,10.00
2015,05,28,03,19,9.90
2015,05,28,03,20,9.90
2015,05,28,03,21,9.90
2015,05,28,03,22,9.90
2015,05,28,03,23,9.90
2015,05,28,03,24,9.90
2015,05,28,03,25,9.90
2015,05,28,03,26,9.90
2015,05,28,03,27,9.90
2015,05,28,03,28,9.90
2015,05,28,03,29,9.90
2015,05,28,03,30,9.90
2015,05,28,03,31,9.90
2015,05,28,03,32,9.90
2015,05,28,03,33,9.90
2015,05,28,03,34,9.90
2015,05,28,03,35,9.90
2015,05,28,03,36,9.90
2015,05,28,03,37,9.90
2015,05,28,03,38,9.90
2015,05,28,03,39,9.90
2015,05,28,03,40,9.90
2015,05,28,03,41,9.90
2015,05,28,03,42,9.90
2015,05,28,03,43,9.90
2015,05,28,03,44,9.90
2015,05,28,03,45,9.90
2015,05,28,03,46,9.80
2015,05,28,03,47,9.80
2015,05,28,03,48,9.80
2015,05,28,03,49,9.80
2015,05,28,03,50,9.80
2015,05,28,03,51,9.80
2015,05,28,03,52,9.80
2015,05,28,03,53,9.80
2015,05,28,03,54,9.80
2015,05,28,03,55,9.90
2015,05,28,03,56,9.90
2015,05,28,03,57,9.90
2015,05,28,03,58,9.90
2015,05,28,03,59,9.90
2015,05,28,04,00,9.90
2015,05,28,04,01,9.90
2015,05,28,04,02,9.90
2015,05,28,04,03,9.80
2015,05,28,04,04,9.80
2015,05,28,04,05,9.80
2015,05,28,04,06,9.80
2015,05,28,04,07,9.80
2015,05,28,04,08,9.80
2015,05,28,04,09,9.80
2015,05,28,04,10,9.90
2015,05,28,04,11,9.90
2015,05,28,04,12,9.90
2015,05,28,04,13,9.90
2015,05,28,04,14,9.90
2015,05,28,04,15,9.90
2015,05,28,04,16,9.90
2015,05,28,04,17,9.90
2015,05,28,04,18,10.10
2015,05,28,04,19,10.10
2015,05,28,04,20,10.10
2015,05,28,04,21,10.10
2015,05,28,04,22,10.10
2015,05,28,04,23,10.10
2015,05,28,04,24,10.10
2015,05,28,04,25,10.20
2015,05,28,04,26,10.20
2015,05,28,04,27,10.20
2015,05,28,04,28,10.20
2015,05,28,04,29,10.30
2015,05,28,04,30,10.30
2015,05,28,04,31,10.30
2015,05,28,04,32,10.30
2015,05,28,04,33,10.40
2015,05,28,04,34,10.40
2015,05,28,04,35,10.40
2015,05,28,04,36,10.40
2015,05,28,04,37,10.40
2015,05,28,04,38,10.40
2015,05,28,04,39,10.40
2015,05,28,04,40,10.40
2015,05,28,04,41,10.40
2015,05,28,04,42,10.50
2015,05,28,04,43,10.60
2015,05,28,04,44,10.60
2015,05,28,04,45,10.60
2015,05,28,04,46,10.60
2015,05,28,04,47,10.60
2015,05,28,04,48,10.60
2015,05,28,04,49,10.60
2015,05,28,04,50,10.60
2015,05,28,04,51,10.60
2015,05,28,04,52,10.60
2015,05,28,04,53,10.60
2015,05,28,04,54,10.60
2015,05,28,04,55,10.60
2015,05,28,04,56,10.60
2015,05,28,04,57,10.60
2015,05,28,04,58,10.60
2015,05,28,04,59,10.60
2015,05,28,05,00,10.60
2015,05,28,05,01,10.60
2015,05,28,05,02,10.60
2015,05,28,05,03,10.60
2015,05,28,05,04,10.60
2015,05,28,05,05,10.60
2015,05,28,05,06,10.60
2015,05,28,05,07,10.60
2015,05,28,05,08,10.60
2015,05,28,05,09,10.60
2015,05,28,05,10,10.60
2015,05,28,05,11,10.60
2015,05,28,05,12,10.60
2015,05,28,05,13,10.60
2015,05,28,05,14,10.60
2015,05,28,05,15,10.60
2015,05,28,05,16,10.60
2015,05,28,05,17,10.50
2015,05,28,05,18,10.40
2015,05,28,05,19,10.40
2015,05,28,05,20,10.40
2015,05,28,05,21,10.40
2015,05,28,05,22,10.40
2015,05,28,05,23,10.40
2015,05,28,05,24,10.40
2015,05,28,05,25,10.30
2015,05,28,05,26,10.30
2015,05,28,05,27,10.30
2015,05,28,05,28,10.30
2015,05,28,05,29,10.20
2015,05,28,05,30,10.20
2015,05,28,05,31,10.20
2015,05,28,05,32,10.20
2015,05,28,05,33,10.20
2015,05,28,05,34,10.20
2015,05,28,05,35,10.20
2015,05,28,05,36,10.20
2015,05,28,05,37,10.20
2015,05,28,05,38,10.20
2015,05,28,05,39,10.20
2015,05,28,05,40,10.20
2015,05,28,05,41,10.20
2015,05,28,05,42,10.20
2015,05,28,05,43,10.20
2015,05,28,05,44,10.20
2015,05,28,05,45,10.30
2015,05,28,05,46,10.30
2015,05,28,05,47,10.30
2015,05,28,05,48,10.30
2015,05,28,05,49,10.30
2015,05,28,05,50,10.30
2015,05,28,05,51,10.30
2015,05,28,05,52,10.30
2015,05,28,05,53,10.30
2015,05,28,05,54,10.30
2015,05,28,05,55,10.30
2015,05,28,05,56,10.30
2015,05,28,05,57,10.30
2015,05,28,05,58,10.30
2015,05,28,05,59,10.20
2015,05,28,06,00,10.20
2015,05,28,06,01,10.20
2015,05,28,06,02,10.20
2015,05,28,06,03,10.20
2015,05,28,06,04,10.20
2015,05,28,06,05,10.30
2015,05,28,06,06,10.30
2015,05,28,06,07,10.30
2015,05,28,06,08,10.40
2015,05,28,06,09,10.40
2015,05,28,06,10,10.40
2015,05,28,06,11,10.50
2015,05,28,06,12,10.60
2015,05,28,06,13,10.60
2015,05,28,06,14,10.60
2015,05,28,06,15,10.60
2015,05,28,06,16,10.60
2015,05,28,06,17,10.70
2015,05,28,06,18,10.70
2015,05,28,06,19,10.70
2015,05,28,06,20,10.80
2015,05,28,06,21,10.80
2015,05,28,06,22,10.80
2015,05,28,06,23,10.90
2015,05,28,06,24,10.90
2015,05,28,06,25,10.90
2015,05,28,06,26,10.90
2015,05,28,06,27,10.90
2015,05,28,06,28,11.00
2015,05,28,06,29,11.10
2015,05,28,06,30,11.10
2015,05,28,06,31,11.10
2015,05,28,06,32,11.10
2015,05,28,06,33,11.10
2015,05,28,06,34,11.10
2015,05,28,06,35,11.10
2015,05,28,06,36,11.10
2015,05,28,06,37,11.10
2015,05,28,06,38,11.10
2015,05,28,06,39,11.10
2015,05,28,06,40,11.20
2015,05,28,06,41,11.20
2015,05,28,06,42,11.20
2015,05,28,06,43,11.30
2015,05,28,06,44,11.30
2015,05,28,06,45,11.30
2015,05,28,06,46,11.40
2015,05,28,06,47,11.40
2015,05,28,06,48,11.40
2015,05,28,06,49,11.40
2015,05,28,06,50,11.50
2015,05,28,06,51,11.60
2015,05,28,06,52,11.60
2015,05,28,06,53,11.60
2015,05,28,06,54,11.70
2015,05,28,06,55,11.70
2015,05,28,06,56,11.70
2015,05,28,06,57,11.80
2015,05,28,06,58,11.80
2015,05,28,06,59,11.80
2015,05,28,07,00,11.90
2015,05,28,07,01,11.90
2015,05,28,07,02,12.00
2015,05,28,07,03,12.00
2015,05,28,07,04,12.00
2015,05,28,07,05,12.10
2015,05,28,07,06,12.10
2015,05,28,07,07,12.20
2015,05,28,07,08,12.20
2015,05,28,07,09,12.30
2015,05,28,07,10,12.30
2015,05,28,07,11,12.30
2015,05,28,07,12,12.30
2015,05,28,07,13,12.40
2015,05,28,07,14,12.50
2015,05,28,07,15,12.50
2015,05,28,07,16,12.60
2015,05,28,07,17,12.60
2015,05,28,07,18,12.70
2015,05,28,07,19,12.80
2015,05,28,07,20,12.80
2015,05,28,07,21,12.90
2015,05,28,07,22,12.90
2015,05,28,07,23,13.00
2015,05,28,07,24,13.00
2015,05,28,07,25,13.00
2015,05,28,07,26,13.10
2015,05,28,07,27,13.10
2015,05,28,07,28,13.20
2015,05,28,07,29,13.20
2015,05,28,07,30,13.30
2015,05,28,07,31,13.40
2015,05,28,07,32,13.50
2015,05,28,07,33,13.60
2015,05,28,07,34,13.60
2015,05,28,07,35,13.70
2015,05,28,07,36,13.80
2015,05,28,07,37,13.90
2015,05,28,07,38,13.90
2015,05,28,07,39,14.00
2015,05,28,07,40,14.00
2015,05,28,07,41,14.00
2015,05,28,07,42,14.10
2015,05,28,07,43,14.10
2015,05,28,07,44,14.20
2015,05,28,07,45,14.20
2015,05,28,07,46,14.20
2015,05,28,07,47,14.20
2015,05,28,07,48,14.20
2015,05,28,07,49,14.20
2015,05,28,07,50,14.20
2015,05,28,07,51,14.20
2015,05,28,07,52,14.20
2015,05,28,07,53,14.10
2015,05,28,07,54,14.10
2015,05,28,07,55,14.10
2015,05,28,07,56,14.10
2015,05,28,07,57,14.00
2015,05,28,07,58,14.00
2015,05,28,07,59,14.00
2015,05,28,08,00,14.00
2015,05,28,08,01,14.00
2015,05,28,08,02,14.00
2015,05,28,08,03,14.10
2015,05,28,08,04,14.10
2015,05,28,08,05,14.10
2015,05,28,08,06,14.10
2015,05,28,08,07,14.10
2015,05,28,08,08,14.00
2015,05,28,08,09,14.00
2015,05,28,08,10,14.00
2015,05,28,08,11,13.90
2015,05,28,08,12,13.80
2015,05,28,08,13,13.70
2015,05,28,08,14,13.70
2015,05,28,08,15,13.60
2015,05,28,08,16,13.60
2015,05,28,08,17,13.70
2015,05,28,08,18,13.70
2015,05,28,08,19,13.70
2015,05,28,08,20,13.70
2015,05,28,08,21,13.70
2015,05,28,08,22,13.70
2015,05,28,08,23,13.70
2015,05,28,08,24,13.70
2015,05,28,08,25,13.70
2015,05,28,08,26,13.80
2015,05,28,08,27,13.80
2015,05,28,08,28,13.80
2015,05,28,08,29,13.80
2015,05,28,08,30,13.80
2015,05,28,08,31,13.90
2015,05,28,08,32,13.90
2015,05,28,08,33,13.90
2015,05,28,08,34,14.00
2015,05,28,08,35,14.10
2015,05,28,08,36,14.10
2015,05,28,08,37,14.10
2015,05,28,08,38,14.10
2015,05,28,08,39,14.00
2015,05,28,08,40,14.10
2015,05,28,08,41,14.10
2015,05,28,08,42,14.20
2015,05,28,08,43,14.20
2015,05,28,08,44,14.30
2015,05,28,08,45,14.30
2015,05,28,08,46,14.40
2015,05,28,08,47,14.40
2015,05,28,08,48,14.50
2015,05,28,08,49,14.50
2015,05,28,08,50,14.60
2015,05,28,08,51,14.70
2015,05,28,08,52,14.70
2015,05,28,08,53,14.70
2015,05,28,08,54,14.60
2015,05,28,08,55,14.60
2015,05,28,08,56,14.60
2015,05,28,08,57,14.60
2015,05,28,08,58,14.60
2015,05,28,08,59,14.60
2015,05,28,09,00,14.60
2015,05,28,09,01,14.70
2015,05,28,09,02,14.70
2015,05,28,09,03,14.70
2015,05,28,09,04,14.80
2015,05,28,09,05,14.80
2015,05,28,09,06,14.90
2015,05,28,09,07,14.90
2015,05,28,09,08,15.00
2015,05,28,09,09,15.00
2015,05,28,09,10,15.00
2015,05,28,09,11,15.00
2015,05,28,09,12,15.00
2015,05,28,09,13,15.00
2015,05,28,09,14,15.10
2015,05,28,09,15,15.00
2015,05,28,09,16,15.00
2015,05,28,09,17,15.00
2015,05,28,09,18,15.10
2015,05,28,09,19,15.10
2015,05,28,09,20,15.10
2015,05,28,09,21,15.10
2015,05,28,09,22,15.10
2015,05,28,09,23,15.10
2015,05,28,09,24,15.10
2015,05,28,09,25,15.10
2015,05,28,09,26,15.10
2015,05,28,09,27,15.10
2015,05,28,09,28,15.10
2015,05,28,09,29,15.10
2015,05,28,09,30,15.10
2015,05,28,09,31,15.10
2015,05,28,09,32,15.10
2015,05,28,09,33,15.20
2015,05,28,09,34,15.10
2015,05,28,09,35,15.10
2015,05,28,09,36,15.10
2015,05,28,09,37,15.20
2015,05,28,09,38,15.20
2015,05,28,09,39,15.20
2015,05,28,09,40,15.30
2015,05,28,09,41,15.30
2015,05,28,09,42,15.30
2015,05,28,09,43,15.30
2015,05,28,09,44,15.30
2015,05,28,09,45,15.30
2015,05,28,09,46,15.40
2015,05,28,09,47,15.50
2015,05,28,09,48,15.60
2015,05,28,09,49,15.60
2015,05,28,09,50,15.70
2015,05,28,09,51,15.80
2015,05,28,09,52,15.90
2015,05,28,09,53,15.90
2015,05,28,09,54,15.90
2015,05,28,09,55,16.00
2015,05,28,09,56,16.10
2015,05,28,09,57,16.20
2015,05,28,09,58,16.20
2015,05,28,09,59,16.10
2015,05,28,10,00,16.10
2015,05,28,10,01,16.10
2015,05,28,10,02,16.10
2015,05,28,10,03,16.00
2015,05,28,10,04,15.90
2015,05,28,10,05,16.00
2015,05,28,10,06,16.10
2015,05,28,10,07,16.20
2015,05,28,10,08,16.30
2015,05,28,10,09,16.40
2015,05,28,10,10,16.50
2015,05,28,10,11,16.60
2015,05,28,10,12,16.60
2015,05,28,10,13,16.50
2015,05,28,10,14,16.40
2015,05,28,10,15,16.40
2015,05,28,10,16,16.40
2015,05,28,10,17,16.30
2015,05,28,10,18,16.30
2015,05,28,10,19,16.20
2015,05,28,10,20,16.10
2015,05,28,10,21,16.10
2015,05,28,10,22,16.10
2015,05,28,10,23,16.10
2015,05,28,10,24,16.10
2015,05,28,10,25,16.10
2015,05,28,10,26,16.10
2015,05,28,10,27,16.10
2015,05,28,10,28,16.10
2015,05,28,10,29,16.10
2015,05,28,10,30,16.10
2015,05,28,10,31,16.10
2015,05,28,10,32,16.20
2015,05,28,10,33,16.20
2015,05,28,10,34,16.30
2015,05,28,10,35,16.30
2015,05,28,10,36,16.20
2015,05,28,10,37,16.20
2015,05,28,10,38,16.20
2015,05,28,10,39,16.30
2015,05,28,10,40,16.30
2015,05,28,10,41,16.40
2015,05,28,10,42,16.40
2015,05,28,10,43,16.40
2015,05,28,10,44,16.40
2015,05,28,10,45,16.40
2015,05,28,10,46,16.30
2015,05,28,10,47,16.30
2015,05,28,10,48,16.40
2015,05,28,10,49,16.40
2015,05,28,10,50,16.40
2015,05,28,10,51,16.40
2015,05,28,10,52,16.40
2015,05,28,10,53,16.40
2015,05,28,10,54,16.60
2015,05,28,10,55,16.60
2015,05,28,10,56,16.70
2015,05,28,10,57,16.70
2015,05,28,10,58,16.80
2015,05,28,10,59,16.90
2015,05,28,11,00,16.90
2015,05,28,11,01,16.90
2015,05,28,11,02,17.00
2015,05,28,11,03,17.00
2015,05,28,11,04,17.10
2015,05,28,11,05,17.10
2015,05,28,11,06,17.10
2015,05,28,11,07,17.20
2015,05,28,11,08,17.30
2015,05,28,11,09,17.30
2015,05,28,11,10,17.40
2015,05,28,11,11,17.50
2015,05,28,11,12,17.50
2015,05,28,11,13,17.50
2015,05,28,11,14,17.50
2015,05,28,11,15,17.50
2015,05,28,11,16,17.60
2015,05,28,11,17,17.60
2015,05,28,11,18,17.60
2015,05,28,11,19,17.60
2015,05,28,11,20,17.70
2015,05,28,11,21,17.70
2015,05,28,11,22,17.70
2015,05,28,11,23,17.70
2015,05,28,11,24,17.70
2015,05,28,11,25,17.70
2015,05,28,11,26,17.60
2015,05,28,11,27,17.60
2015,05,28,11,28,17.70
2015,05,28,11,29,17.70
2015,05,28,11,30,17.70
2015,05,28,11,31,17.80
2015,05,28,11,32,17.90
2015,05,28,11,33,18.00
2015,05,28,11,34,18.20
2015,05,28,11,35,18.30
2015,05,28,11,36,18.40
2015,05,28,11,37,18.30
2015,05,28,11,38,18.20
2015,05,28,11,39,18.20
2015,05,28,11,40,18.20
2015,05,28,11,41,18.20
2015,05,28,11,42,18.20
2015,05,28,11,43,18.20
2015,05,28,11,44,18.20
2015,05,28,11,45,18.20
2015,05,28,11,46,18.20
2015,05,28,11,47,18.20
2015,05,28,11,48,18.20
2015,05,28,11,49,18.20
2015,05,28,11,50,18.20
2015,05,28,11,51,18.20
2015,05,28,11,52,18.20
2015,05,28,11,53,18.20
2015,05,28,11,54,18.40
2015,05,28,11,55,18.50
2015,05,28,11,56,18.60
2015,05,28,11,57,18.50
2015,05,28,11,58,18.50
2015,05,28,11,59,18.50
2015,05,28,12,00,18.50
2015,05,28,12,01,18.40
2015,05,28,12,02,18.40
2015,05,28,12,03,18.50
2015,05,28,12,04,18.50
2015,05,28,12,05,18.50
2015,05,28,12,06,18.60
2015,05,28,12,07,18.60
2015,05,28,12,08,18.70
2015,05,28,12,09,18.70
2015,05,28,12,10,18.80
2015,05,28,12,11,18.80
2015,05,28,12,12,18.80
2015,05,28,12,13,18.80
2015,05,28,12,14,18.80
2015,05,28,12,15,18.80
2015,05,28,12,16,18.90
2015,05,28,12,17,18.90
2015,05,28,12,18,18.90
2015,05,28,12,19,18.90
2015,05,28,12,20,18.80
2015,05,28,12,21,18.80
2015,05,28,12,22,18.90
2015,05,28,12,23,18.90
2015,05,28,12,24,18.90
2015,05,28,12,25,18.90
2015,05,28,12,26,18.90
2015,05,28,12,27,18.90
2015,05,28,12,28,18.80
2015,05,28,12,29,18.80
2015,05,28,12,30,18.80
2015,05,28,12,31,18.80
2015,05,28,12,32,18.80
2015,05,28,12,33,18.80
2015,05,28,12,34,18.80
2015,05,28,12,35,18.80
2015,05,28,12,36,18.80
2015,05,28,12,37,18.80
2015,05,28,12,38,18.80
2015,05,28,12,39,18.80
2015,05,28,12,40,18.90
2015,05,28,12,41,18.90
2015,05,28,12,42,18.90
2015,05,28,12,43,19.00
2015,05,28,12,44,19.10
2015,05,28,12,45,19.10
2015,05,28,12,46,19.10
2015,05,28,12,47,19.10
2015,05,28,12,48,19.10
2015,05,28,12,49,19.10
2015,05,28,12,50,19.10
2015,05,28,12,51,19.20
2015,05,28,12,52,19.20
2015,05,28,12,53,19.30
2015,05,28,12,54,19.40
2015,05,28,12,55,19.40
2015,05,28,12,56,19.50
2015,05,28,12,57,19.40
2015,05,28,12,58,19.50
2015,05,28,12,59,19.50
2015,05,28,13,00,19.50
2015,05,28,13,01,19.50
2015,05,28,13,02,19.60
2015,05,28,13,03,19.60
2015,05,28,13,04,19.70
2015,05,28,13,05,19.70
2015,05,28,13,06,19.80
2015,05,28,13,07,19.90
2015,05,28,13,08,19.90
2015,05,28,13,09,19.90
2015,05,28,13,10,19.90
2015,05,28,13,11,19.90
2015,05,28,13,12,19.90
2015,05,28,13,13,19.90
2015,05,28,13,14,20.10
2015,05,28,13,15,20.20
2015,05,28,13,16,20.20
2015,05,28,13,17,20.30
2015,05,28,13,18,20.40
2015,05,28,13,19,20.50
2015,05,28,13,20,20.50
2015,05,28,13,21,20.60
2015,05,28,13,22,20.70
2015,05,28,13,23,20.80
2015,05,28,13,24,20.80
2015,05,28,13,25,20.80
2015,05,28,13,26,20.80
2015,05,28,13,27,20.70
2015,05,28,13,28,20.70
2015,05,28,13,29,20.60
2015,05,28,13,30,20.60
2015,05,28,13,31,20.70
2015,05,28,13,32,20.70
2015,05,28,13,33,20.60
2015,05,28,13,34,20.60
2015,05,28,13,35,20.60
2015,05,28,13,36,20.70
2015,05,28,13,37,20.60
2015,05,28,13,38,20.60
2015,05,28,13,39,20.60
2015,05,28,13,40,20.60
2015,05,28,13,41,20.60
2015,05,28,13,42,20.70
2015,05,28,13,43,20.70
2015,05,28,13,44,20.60
2015,05,28,13,45,20.60
2015,05,28,13,46,20.50
2015,05,28,13,47,20.50
2015,05,28,13,48,20.60
2015,05,28,13,49,20.60
2015,05,28,13,50,20.60
2015,05,28,13,51,20.50
2015,05,28,13,52,20.50
2015,05,28,13,53,20.50
2015,05,28,13,54,20.40
2015,05,28,13,55,20.40
2015,05,28,13,56,20.40
2015,05,28,13,57,20.30
2015,05,28,13,58,20.30
2015,05,28,13,59,20.30
2015,05,28,14,00,20.30
2015,05,28,14,01,20.30
2015,05,28,14,02,20.30
2015,05,28,14,03,20.30
2015,05,28,14,04,20.40
2015,05,28,14,05,20.40
2015,05,28,14,06,20.40
2015,05,28,14,07,20.50
2015,05,28,14,08,20.50
2015,05,28,14,09,20.50
2015,05,28,14,10,20.50
2015,05,28,14,11,20.50
2015,05,28,14,12,20.60
2015,05,28,14,13,20.80
2015,05,28,14,14,20.80
2015,05,28,14,15,20.80
2015,05,28,14,16,20.80
2015,05,28,14,17,20.70
2015,05,28,14,18,20.70
2015,05,28,14,19,20.70
2015,05,28,14,20,20.70
2015,05,28,14,21,20.60
2015,05,28,14,22,20.50
2015,05,28,14,23,20.50
2015,05,28,14,24,20.40
2015,05,28,14,25,20.40
2015,05,28,14,26,20.30
2015,05,28,14,27,20.30
2015,05,28,14,28,20.40
2015,05,28,14,29,20.40
2015,05,28,14,30,20.40
2015,05,28,14,31,20.50
2015,05,28,14,32,20.50
2015,05,28,14,33,20.50
2015,05,28,14,34,20.40
2015,05,28,14,35,20.30
2015,05,28,14,36,20.30
2015,05,28,14,37,20.40
2015,05,28,14,38,20.40
2015,05,28,14,39,20.40
2015,05,28,14,40,20.50
2015,05,28,14,41,20.60
2015,05,28,14,42,20.70
2015,05,28,14,43,20.70
2015,05,28,14,44,20.80
2015,05,28,14,45,20.90
2015,05,28,14,46,20.90
2015,05,28,14,47,21.00
2015,05,28,14,48,21.00
2015,05,28,14,49,21.00
2015,05,28,14,50,21.10
2015,05,28,14,51,21.20
2015,05,28,14,52,21.20
2015,05,28,14,53,21.20
2015,05,28,14,54,21.30
2015,05,28,14,55,21.20
2015,05,28,14,56,21.00
2015,05,28,14,57,21.00
2015,05,28,14,58,21.00
2015,05,28,14,59,20.90
2015,05,28,15,00,20.90
2015,05,28,15,01,20.90
2015,05,28,15,02,20.90
2015,05,28,15,03,21.00
2015,05,28,15,04,21.00
2015,05,28,15,05,21.00
2015,05,28,15,06,21.00
2015,05,28,15,07,21.00
2015,05,28,15,08,21.00
2015,05,28,15,09,21.00
2015,05,28,15,10,20.90
2015,05,28,15,11,20.90
2015,05,28,15,12,20.90
2015,05,28,15,13,20.90
2015,05,28,15,14,21.00
2015,05,28,15,15,21.00
2015,05,28,15,16,21.10
2015,05,28,15,17,21.10
2015,05,28,15,18,21.20
2015,05,28,15,19,21.30
2015,05,28,15,20,21.30
2015,05,28,15,21,21.40
2015,05,28,15,22,21.50
2015,05,28,15,23,21.60
2015,05,28,15,24,21.60
2015,05,28,15,25,21.70
2015,05,28,15,26,21.70
2015,05,28,15,27,21.80
2015,05,28,15,28,21.90
2015,05,28,15,29,22.00
2015,05,28,15,30,22.20
2015,05,28,15,31,22.30
2015,05,28,15,32,22.40
2015,05,28,15,33,22.40
2015,05,28,15,34,22.40
2015,05,28,15,35,22.30
2015,05,28,15,36,22.30
2015,05,28,15,37,22.30
2015,05,28,15,38,22.30
2015,05,28,15,39,22.40
2015,05,28,15,40,22.50
2015,05,28,15,41,22.60
2015,05,28,15,42,22.80
2015,05,28,15,43,22.90
2015,05,28,15,44,23.00
2015,05,28,15,45,23.20
2015,05,28,15,46,23.30
2015,05,28,15,47,23.50
2015,05,28,15,48,23.70
2015,05,28,15,49,23.80
2015,05,28,15,50,23.80
2015,05,28,15,51,23.90
2015,05,28,15,52,23.90
2015,05,28,15,53,23.90
2015,05,28,15,54,23.90
2015,05,28,15,55,23.80
2015,05,28,15,56,23.70
2015,05,28,15,57,23.70
2015,05,28,15,58,23.80
2015,05,28,15,59,23.80
2015,05,28,16,00,23.80
2015,05,28,16,01,23.80
2015,05,28,16,02,23.80
2015,05,28,16,03,23.80
2015,05,28,16,04,23.80
2015,05,28,16,05,23.80
2015,05,28,16,06,23.80
2015,05,28,16,07,23.80
2015,05,28,16,08,23.70
2015,05,28,16,09,23.70
2015,05,28,16,10,23.70
2015,05,28,16,11,23.70
2015,05,28,16,12,23.70
2015,05,28,16,13,23.70
2015,05,28,16,14,23.70
2015,05,28,16,15,23.70
2015,05,28,16,16,23.70
2015,05,28,16,17,23.60
2015,05,28,16,18,23.60
2015,05,28,16,19,23.60
2015,05,28,16,20,23.60
2015,05,28,16,21,23.50
2015,05,28,16,22,23.40
2015,05,28,16,23,23.40
2015,05,28,16,24,23.40
2015,05,28,16,25,23.40
2015,05,28,16,26,23.40
2015,05,28,16,27,23.40
2015,05,28,16,28,23.30
2015,05,28,16,29,23.30
2015,05,28,16,30,23.30
2015,05,28,16,31,23.30
2015,05,28,16,32,23.40
2015,05,28,16,33,23.30
2015,05,28,16,34,23.30
2015,05,28,16,35,23.30
2015,05,28,16,36,23.30
2015,05,28,16,37,23.30
2015,05,28,16,38,23.30
2015,05,28,16,39,23.30
2015,05,28,16,40,23.30
2015,05,28,16,41,23.30
2015,05,28,16,42,23.30
2015,05,28,16,43,23.30
2015,05,28,16,44,23.20
2015,05,28,16,45,23.20
2015,05,28,16,46,23.20
2015,05,28,16,47,23.10
2015,05,28,16,48,23.10
2015,05,28,16,49,23.10
2015,05,28,16,50,23.10
2015,05,28,16,51,23.10
2015,05,28,16,52,23.10
2015,05,28,16,53,23.10
2015,05,28,16,54,23.10
2015,05,28,16,55,23.10
2015,05,28,16,56,23.10
2015,05,28,16,57,23.10
2015,05,28,16,58,23.10
2015,05,28,16,59,23.10
2015,05,28,17,00,23.10
2015,05,28,17,01,23.00
2015,05,28,17,02,22.90
2015,05,28,17,03,22.90
2015,05,28,17,04,22.90
2015,05,28,17,05,22.90
2015,05,28,17,06,22.90
2015,05,28,17,07,22.90
2015,05,28,17,08,22.80
2015,05,28,17,09,22.90
2015,05,28,17,10,22.90
2015,05,28,17,11,22.90
2015,05,28,17,12,22.70
2015,05,28,17,13,22.70
2015,05,28,17,14,22.70
2015,05,28,17,15,22.70
2015,05,28,17,16,22.70
2015,05,28,17,17,22.70
2015,05,28,17,18,22.60
2015,05,28,17,19,22.60
2015,05,28,17,20,22.60
2015,05,28,17,21,22.60
2015,05,28,17,22,22.60